{"data":{"norad_id":36834,"epoch":"2026-09-20T04:46:50.375424Z","epoch_age_seconds":40397,"freshness":"FRESH","line1":"1 36834U 10038A   26263.19919416  .00000972  00000+0  11863-3 0  9994","line2":"2 36834  97.8955 285.8466 0001591  89.0813   1.8838 14.85588895871312","mean_motion":14.85588895,"eccentricity":0.0001591,"inclination_deg":97.8955,"raan_deg":285.8466,"arg_perigee_deg":89.0813,"mean_anomaly_deg":1.8838,"bstar":0.00011863,"rev_number":87131,"period_min":96.931257688218,"perigee_km":610.62595028894,"apogee_km":612.85012852648,"semimajor_km":6989.8750394077,"source":"CELESTRAK","updated_at":"2026-09-20T09:00:33.891379Z"}}